EHI
1 1 0 0 0 0 0 1 3 4 4 5 7 10 9 6 2 1 1 11 26 30 23 24 29 26 16 10 5 2 1 1 0 0 0 0 0 0 0 0 0 0 0 0 0 1 2 2 1
1 0 0 0 0 0 0 1 3 6 8 11 13 14 11 7 4 2 4 15 29 31 25 26 31 27 18 11 7 4 2 0 0 0 0 0 0 0 0 0 0 0 0 0 1 1 2 2 1
0 0 0 0 0 0 0 2 5 9 14 20 22 18 12 8 6 7 14 26 33 32 28 31 35 30 20 14 9 5 2 1 0 0 0 0 0 0 0 0 0 0 0 0 1 2 2 1 0
0 0 0 0 0 0 0 2 7 13 18 26 29 22 14 15 20 25 31 36 36 31 28 34 38 32 22 17 12 6 2 1 0 0 0 0 0 0 0 0 0 0 0 0 1 1 1 0 0
0 0 0 0 0 0 0 3 9 16 24 34 38 27 18 27 44 49 45 42 39 34 30 33 37 32 24 18 13 7 3 0 0 0 0 0 0 0 0 0 0 0 0 0 0 0 0 0 0
0 0 0 0 0 0 1 4 10 20 31 41 43 32 23 35 54 59 51 45 43 39 34 30 29 27 23 19 15 10 5 1 0 0 0 0 0 0 0 0 0 0 0 0 0 0 0 0 0
0 0 0 0 0 0 2 5 11 21 34 42 42 33 27 37 53 58 53 47 44 42 37 26 19 18 18 16 13 10 6 2 0 0 0 0 0 0 0 0 0 0 0 0 0 0 0 0 0
0 0 0 0 0 0 2 5 10 23 37 42 35 28 30 44 59 63 56 48 43 39 32 23 15 12 11 9 8 7 5 2 0 0 0 0 0 0 0 0 0 0 0 0 0 0 0 0 0
0 0 0 0 0 0 0 3 11 27 43 44 33 29 40 58 70 70 61 49 41 34 27 21 17 11 6 4 4 4 3 1 0 0 0 0 0 0 0 0 0 0 0 0 0 1 1 1 0
0 0 0 0 0 0 0 2 11 26 41 44 39 41 53 67 74 72 61 46 35 29 24 19 15 10 5 3 2 2 1 1 0 0 0 0 0 0 0 0 0 0 0 0 0 1 2 1 1
0 0 0 0 0 0 0 2 8 20 31 38 42 47 55 64 69 70 59 42 32 27 21 16 11 7 3 2 1 1 0 0 0 0 0 0 0 0 0 0 0 0 0 0 0 1 1 1 0
0 0 0 0 0 0 0 2 8 16 25 35 43 46 49 54 60 62 54 40 32 27 20 14 10 6 3 1 0 0 0 0 0 0 0 0 0 0 0 0 0 0 0 0 0 0 0 0 0
0 0 0 0 0 0 0 3 10 18 28 40 49 48 47 49 52 54 51 42 34 29 22 16 11 7 3 1 0 0 0 0 0 0 0 0 0 0 0 0 0 0 0 0 0 0 0 0 0
0 0 1 0 0 0 1 3 10 20 32 44 50 48 47 50 52 52 51 47 39 32 26 21 15 8 3 1 0 0 1 0 0 0 0 0 0 0 0 0 0 0 0 0 0 0 0 0 0
0 0 0 0 0 0 1 2 8 19 32 41 46 45 45 49 50 52 54 52 46 38 33 28 20 12 5 1 0 0 1 0 0 0 0 0 0 0 0 0 0 0 0 0 0 0 0 0 0
0 0 0 0 0 0 1 2 7 18 30 38 41 42 43 45 47 50 55 55 50 44 38 33 27 18 9 4 1 1 1 0 0 0 0 0 0 0 0 0 0 0 0 0 0 0 0 0 0
0 0 0 0 0 0 1 3 7 18 29 35 38 39 42 45 47 50 54 53 49 45 41 36 31 24 14 8 4 2 1 0 0 0 0 0 0 0 0 0 0 0 0 0 0 0 0 0 0
0 0 0 0 0 1 3 5 8 17 28 34 37 39 42 47 50 52 52 49 46 44 40 35 30 24 18 13 9 6 2 1 1 0 0 0 0 0 0 0 0 0 0 0 0 0 0 0 0
0 0 0 0 0 1 3 6 9 15 23 30 34 38 42 47 51 52 50 46 44 42 37 30 25 22 20 17 13 9 4 2 1 1 0 0 1 0 0 0 0 0 0 0 0 0 0 0 0
0 0 0 0 0 1 3 7 9 11 17 23 29 35 40 45 49 52 51 48 44 40 34 27 23 22 21 18 13 8 4 2 1 1 0 0 0 0 0 0 0 0 0 0 0 0 0 0 0
0 0 0 0 0 0 2 4 6 7 11 18 24 30 34 39 44 49 51 49 45 41 35 28 24 24 22 18 13 8 5 2 1 0 0 0 0 0 0 0 0 0 0 0 0 0 0 0 0
0 0 0 0 0 0 0 1 2 4 8 14 21 25 29 35 40 45 49 49 45 42 37 31 28 28 24 18 14 10 6 3 1 0 0 0 0 0 0 0 0 0 0 0 0 0 0 0 0
0 0 0 0 0 0 0 0 1 3 6 11 16 20 24 30 36 42 46 46 44 42 39 34 31 29 25 18 13 10 6 3 1 1 0 0 0 0 0 0 0 0 0 0 0 0 0 0 0
0 0 0 0 0 0 0 0 0 1 3 7 11 14 17 24 32 37 41 42 42 42 40 35 30 27 23 16 10 7 5 3 2 2 1 1 0 0 0 0 0 0 0 0 0 0 0 0 0
0 0 0 0 0 0 0 0 0 0 1 4 8 11 13 18 27 34 38 40 41 41 39 34 28 24 21 15 10 7 5 4 4 3 3 2 1 0 0 0 0 0 0 0 0 0 0 0 0
0 0 0 0 0 0 0 0 0 0 1 4 8 11 13 17 26 34 37 37 38 38 36 31 27 24 20 16 11 7 6 4 3 3 3 2 1 0 0 0 0 0 0 0 0 0 0 0 0
0 0 0 0 0 0 0 0 0 0 2 6 9 11 12 16 24 32 34 33 33 33 31 28 25 23 20 17 13 9 7 5 3 2 3 2 1 1 0 0 0 0 0 0 0 0 0 0 0
0 0 0 0 0 0 0 0 0 1 3 5 8 9 10 14 23 29 30 28 28 28 27 25 23 22 20 18 15 11 7 5 3 2 1 2 2 2 2 1 1 0 0 0 0 0 0 0 0
0 0 0 0 0 0 0 0 0 0 1 3 5 6 8 13 20 24 23 22 24 25 26 24 22 20 20 18 16 12 8 5 3 2 1 1 2 2 2 2 1 0 0 0 0 0 0 0 0
0 0 0 0 0 0 0 0 0 0 0 1 3 6 8 12 17 18 18 18 22 24 25 24 21 19 19 18 16 12 9 6 4 2 1 0 1 1 1 1 0 0 0 0 0 0 0 0 0
Wind_Speed
6 4 2 1 3 4 0 3 3 2 1 3 9 10 9 6 5 6 7 16 18 16 13 17 19 19 18 18 17 17 16 16 16 16 16 16 15 15 16 16 15 15 15 14 14 14 14 13 13
3 3 1 3 4 1 3 4 4 5 5 8 10 11 9 8 9 12 10 17 19 16 12 14 20 19 19 18 17 16 16 16 16 16 15 15 15 16 16 15 15 15 14 14 14 14 13 13 12
3 2 2 3 2 3 4 4 7 5 5 7 7 7 7 7 11 8 12 19 17 14 11 15 21 20 19 18 17 17 16 16 16 15 15 15 15 15 15 15 15 14 14 14 13 13 12 12 11
1 2 3 2 3 6 5 7 5 5 4 7 10 8 5 5 7 13 20 19 17 13 11 15 21 20 19 18 17 17 16 16 15 15 15 15 15 15 15 15 15 14 14 13 12 12 11 11 10
3 3 3 1 4 4 4 8 7 5 4 8 11 8 5 5 17 21 19 18 17 14 10 14 20 20 19 18 17 17 16 15 16 15 15 15 15 15 15 14 14 14 13 12 12 11 10 9 9
2 3 2 2 5 4 4 6 6 4 10 11 11 9 4 9 17 18 18 16 15 14 11 12 20 20 19 18 17 16 16 15 15 15 15 15 14 14 14 14 13 13 12 11 11 10 9 8 7
3 2 3 4 4 4 3 3 6 7 9 8 9 8 5 8 12 15 15 15 14 13 11 9 10 14 17 18 17 16 16 15 15 15 15 14 14 14 13 13 12 12 11 10 10 9 8 6 5
4 3 2 3 3 4 3 2 4 7 8 9 8 9 9 10 14 15 15 14 13 11 10 9 8 8 8 10 16 16 16 16 15 15 15 14 14 13 13 11 11 11 10 9 9 8 6 5 4
2 2 4 5 4 3 2 4 2 5 9 6 5 6 13 18 19 17 15 12 11 11 9 9 8 7 7 7 12 13 15 15 14 12 14 11 5 6 7 9 10 10 9 8 7 6 4 3 3
5 4 9 7 5 3 2 5 5 6 8 7 8 11 17 19 19 18 17 16 14 13 10 9 9 8 8 8 7 4 6 6 5 4 6 4 4 3 6 8 10 9 8 7 5 4 2 1 1
6 8 7 7 7 4 1 1 3 9 6 10 16 18 16 17 16 16 16 15 15 14 12 10 10 9 7 5 5 3 3 3 4 5 5 4 3 3 3 2 3 4 4 2 2 1 0 0 0
5 8 8 7 5 3 4 3 3 4 8 14 19 20 16 16 16 16 16 14 13 13 11 10 9 8 7 7 5 4 4 3 4 4 5 4 3 3 3 2 2 2 1 1 1 1 1 1 1
7 9 8 7 4 3 3 3 5 5 10 14 17 17 16 15 14 12 14 14 13 13 12 11 10 9 8 7 5 6 5 4 4 4 5 5 4 4 4 2 2 2 2 2 2 1 1 1 1
6 6 6 5 4 2 4 2 5 6 12 14 15 14 14 14 13 12 14 13 13 13 13 11 11 10 9 6 5 5 5 4 4 4 5 6 5 5 4 3 3 2 2 2 2 2 2 1 1
4 4 5 3 2 1 3 1 3 9 13 14 14 13 13 12 13 14 15 15 14 13 12 11 11 10 9 8 7 5 5 5 4 4 5 5 5 5 5 3 3 2 2 2 2 2 2 1 2
3 2 3 6 2 2 4 4 5 9 12 11 12 13 12 11 13 13 13 13 12 12 11 11 11 10 9 7 6 4 4 5 4 4 4 5 6 6 5 4 3 2 2 2 2 2 2 2 2
2 0 4 6 3 3 5 5 7 9 11 11 12 13 13 12 11 11 14 14 13 12 11 10 9 10 8 7 5 5 5 4 4 4 3 4 5 6 4 3 2 3 2 2 2 2 2 2 2
4 3 4 6 5 3 4 6 7 8 10 10 10 11 12 14 13 12 13 13 12 11 11 10 9 9 8 5 4 4 4 4 4 4 4 5 4 5 4 3 3 3 3 2 2 2 2 2 2
5 5 6 8 7 3 6 6 7 7 8 10 9 10 11 11 11 12 13 13 12 11 11 11 10 9 7 5 5 5 4 4 4 4 5 5 5 5 4 3 3 3 3 3 3 2 2 1 2
7 7 7 7 5 3 3 4 6 7 9 12 13 12 12 10 10 13 13 13 13 13 12 11 11 10 8 6 5 4 4 3 3 3 4 5 5 5 5 5 4 3 3 3 3 3 2 1 1
9 8 8 7 3 1 2 2 3 4 4 6 9 11 12 15 16 16 15 14 14 14 14 13 11 10 9 8 5 4 4 3 2 2 3 3 5 5 5 5 4 4 3 3 3 3 4 2 0
9 9 8 6 2 2 2 2 6 4 3 7 9 9 11 13 13 14 14 14 15 14 13 11 11 10 9 9 8 9 6 5 5 4 3 4 4 5 5 5 5 4 3 3 3 3 3 3 2
9 7 6 5 4 1 2 2 7 2 4 7 9 11 12 13 15 15 16 15 14 13 13 11 11 10 9 9 9 9 6 4 4 4 5 4 3 4 5 5 5 4 3 4 3 3 3 3 3
6 2 2 4 5 1 3 2 5 3 6 6 7 9 12 13 14 13 13 12 11 11 11 11 11 10 10 10 9 9 9 7 7 6 5 4 3 2 4 5 5 4 4 4 4 3 3 2 3
3 5 3 4 4 4 3 2 7 6 5 7 9 9 10 12 13 13 13 13 12 13 13 12 13 11 10 10 9 9 10 10 9 8 7 5 4 3 4 4 4 4 4 4 4 3 3 3 3
5 10 9 5 5 3 2 3 7 7 5 3 5 7 8 9 11 14 14 14 14 15 14 13 13 11 11 10 9 8 9 7 6 7 6 6 5 4 5 5 5 5 4 4 3 2 2 2 2
4 4 8 8 3 1 3 5 7 4 4 2 2 5 7 8 10 13 13 13 13 14 14 14 13 11 11 11 9 8 8 7 7 7 6 5 5 5 6 6 5 5 4 4 4 2 2 2 2
7 7 6 6 5 1 2 3 4 4 3 2 1 4 5 6 8 10 12 12 11 11 11 12 12 11 10 10 9 8 7 7 7 7 7 6 6 6 7 6 6 5 5 5 4 3 2 3 2
2 4 6 5 6 6 3 6 5 6 4 3 3 3 5 7 9 11 10 10 11 11 11 11 11 10 9 10 8 8 7 7 7 7 7 7 6 7 7 7 6 6 5 5 4 3 3 3 2
5 5 6 6 3 5 4 7 4 7 5 4 4 4 5 7 9 10 10 10 10 10 10 11 11 11 10 9 8 8 8 7 7 7 7 7 7 7 7 7 7 6 6 5 5 5 4 4 4
Wind_Direction
181 188 173 88 58 55 222 242 233 254 337 71 90 92 94 82 119 137 136 143 139 142 143 140 136 131 127 124 120 117 114 112 110 108 106 106 106 109 113 116 116 115 113 113 113 111 110 109 109
180 185 100 61 80 59 257 209 226 238 156 115 89 87 81 70 89 112 126 143 140 140 140 140 138 134 131 128 125 122 118 116 114 112 111 110 109 110 113 114 114 114 113 112 113 114 112 110 109
205 182 98 79 119 187 232 220 203 206 160 119 95 72 79 108 117 124 139 141 137 137 139 144 139 137 134 131 128 126 123 121 119 117 115 114 113 113 114 114 114 114 115 115 116 114 112 110 108
139 60 47 72 246 233 221 245 210 167 146 108 103 80 72 109 124 133 138 140 136 137 140 145 141 139 137 134 132 129 127 126 123 121 120 119 117 116 116 116 115 115 116 118 118 117 114 111 106
80 85 61 328 264 247 238 240 203 180 148 110 101 91 56 56 115 131 139 140 138 138 140 143 141 141 139 137 135 133 131 129 127 125 124 123 121 120 119 118 118 118 119 120 121 120 116 112 106
68 85 102 239 255 274 264 220 164 144 117 108 103 101 80 117 125 137 139 138 138 138 138 142 143 142 141 140 138 136 135 133 131 129 128 127 125 124 124 124 123 123 122 123 124 125 121 116 108
138 126 203 227 255 269 241 204 157 140 123 121 120 107 115 134 136 134 132 132 134 136 136 137 141 143 144 144 141 139 137 136 135 133 132 131 130 129 128 127 128 129 129 129 129 129 125 118 105
162 116 268 255 246 250 207 153 132 127 116 120 116 128 152 155 136 129 127 128 133 136 137 137 134 134 139 143 144 143 142 141 140 139 138 137 135 134 134 132 134 134 134 134 134 132 127 120 103
138 103 228 227 226 242 192 126 90 90 105 102 106 139 147 137 133 130 129 130 138 142 143 142 138 136 137 144 149 146 145 146 144 143 144 137 126 128 135 141 143 142 140 140 140 139 134 116 94
145 184 224 215 218 237 224 148 150 112 100 98 101 113 131 136 140 141 145 149 151 153 155 152 148 148 151 153 140 139 141 142 140 141 139 132 135 145 145 153 152 151 148 147 152 152 139 90 63
181 206 228 239 239 228 202 156 139 128 130 150 144 142 144 144 148 150 154 156 157 158 159 158 156 156 158 141 145 141 136 143 148 152 149 144 141 146 137 142 150 150 153 147 159 157 208 191 141
223 242 237 242 240 219 196 164 111 133 160 155 151 151 150 153 157 158 159 158 158 159 159 158 158 158 155 147 152 151 152 163 163 164 159 147 144 147 149 151 155 157 153 171 169 183 230 234 172
240 255 254 246 236 198 165 145 124 124 136 142 145 149 153 156 160 160 158 157 159 161 161 162 161 160 154 150 158 159 165 172 169 167 164 156 152 157 159 163 170 175 167 169 172 177 172 136 107
231 240 258 256 239 193 143 134 114 145 142 143 149 156 161 162 160 158 158 159 162 163 161 161 160 159 155 155 158 163 168 169 163 164 166 160 159 157 155 160 167 175 179 175 168 161 151 130 98
252 281 297 282 251 217 116 43 182 160 152 153 158 163 164 163 162 166 165 163 163 162 159 158 157 154 156 159 164 162 163 161 158 161 163 157 156 155 151 154 160 172 170 157 134 123 110 110 100
1 360 290 285 252 212 128 230 221 167 156 163 165 168 168 169 171 169 162 159 158 156 158 161 159 156 159 158 156 151 153 152 155 152 151 150 152 151 144 148 158 154 137 135 129 118 106 92 94
358 225 260 286 258 196 150 212 213 179 165 171 173 171 169 166 168 165 162 161 159 158 159 160 153 158 159 154 149 141 138 147 152 146 145 145 145 144 141 145 147 128 117 123 141 119 123 125 121
232 229 255 257 265 213 197 214 207 186 171 173 177 171 167 170 171 165 161 161 159 159 160 158 156 158 153 147 135 127 127 140 145 146 149 143 142 141 137 137 140 127 116 112 110 116 105 127 136
222 238 255 262 260 222 209 212 204 195 175 173 175 175 173 176 168 160 163 164 161 162 161 161 160 162 154 154 154 148 150 150 147 153 150 149 147 142 139 138 134 131 133 143 134 120 104 88 100
238 246 261 276 252 202 188 204 199 191 184 181 178 180 176 166 165 168 168 170 169 170 168 165 167 166 164 164 160 155 145 148 150 150 149 155 152 150 151 145 144 143 133 128 124 120 115 97 114
240 224 229 235 264 30 103 328 246 223 194 188 185 178 172 173 177 175 174 175 171 171 173 173 172 169 167 159 142 131 112 105 116 148 159 165 156 150 146 148 144 145 140 144 143 135 134 140 95
242 233 217 209 157 257 152 211 267 232 223 203 196 182 178 178 176 174 175 176 176 175 173 169 170 170 167 159 158 159 160 163 174 170 164 160 156 151 149 148 144 143 141 145 148 137 135 135 142
226 227 211 189 154 89 7 138 272 243 231 222 201 187 181 180 177 177 178 179 176 172 171 169 168 169 168 166 166 166 164 162 152 151 153 154 151 152 148 146 142 142 141 143 137 131 130 135 146
220 184 30 51 80 113 247 169 271 246 232 236 215 197 182 180 179 178 175 169 168 167 167 166 168 171 171 169 167 168 165 159 156 161 163 161 152 151 154 146 144 145 144 145 144 141 141 143 142
179 108 44 7 14 246 264 181 246 253 246 218 211 204 188 182 177 173 171 169 168 168 169 170 172 173 174 171 172 172 169 167 170 170 170 166 163 168 173 157 154 151 152 150 142 135 138 144 143
192 146 158 185 211 254 317 240 257 268 269 240 194 178 173 182 180 176 176 173 172 170 170 170 173 173 174 173 174 173 169 170 173 173 170 173 175 175 168 163 163 159 155 153 143 133 142 130 129
161 158 162 136 142 124 274 285 304 316 338 23 114 147 170 180 183 179 174 172 172 170 171 172 173 172 174 173 169 171 171 170 172 173 168 168 169 169 167 165 162 160 156 152 143 139 151 135 130
152 147 100 112 138 196 268 262 259 292 316 360 108 161 176 177 176 175 173 171 169 168 168 168 168 172 173 171 174 176 174 172 168 167 168 172 173 168 163 165 162 159 157 152 144 145 153 142 147
106 104 108 119 142 151 215 258 223 209 211 202 209 186 175 175 177 174 172 167 162 161 162 165 168 167 170 173 173 167 169 168 164 169 174 173 172 167 168 168 167 166 164 160 158 168 166 164 164
131 141 132 141 178 153 165 257 238 195 196 190 184 175 182 178 172 167 164 161 160 164 167 169 171 172 173 172 166 164 166 166 167 171 173 169 169 170 170 168 169 173 171 171 175 185 178 172 170